KE2A-13 Weather Reports


time (UTC)temp
F
wind
direction
speed
knots
gust
knots
rain 1hr
in
rain 24hr
in
rain mn
in
humidity
%
barometer
mb
20260506124500 65 220 0.0 0.9 0.00 0.00 0.00 76 1008.9
20260506123000 65 266 1.7 1.7 0.00 0.00 0.00 78 1008.9
20260506121500 64 259 1.7 2.6 0.00 0.00 0.00 80 1009.2
20260506120000 63 226 0.9 2.6 0.00 0.00 0.00 82 1009.5
20260506114500 63 264 0.9 1.7 0.00 0.00 0.00 81 1009.5
20260506113000 62 250 0.0 0.9 0.00 0.00 0.00 84 1009.4
20260506111500 62 192 0.9 1.7 0.00 0.00 0.00 84 1009.3
20260506110000 60 26 0.0 0.0 0.00 0.00 0.00 87 1009.4
20260506104500 59 187 0.0 0.9 0.00 0.00 0.00 88 1009.5
20260506103000 59 185 0.9 1.7 0.00 0.00 0.00 89 1009.5
20260506101500 58 5 0.0 1.7 0.00 0.00 0.00 88 1009.2
20260506100000 58 40 0.0 0.9 0.00 0.00 0.00 87 1009.1
20260506094500 58 325 0.0 0.9 0.00 0.00 0.00 86 1009.4
20260506093000 58 327 0.0 0.9 0.00 0.00 0.00 86 1009.3
20260506091500 59 293 0.0 0.9 0.00 0.00 0.00 84 1009.4
20260506090000 59 304 0.9 1.7 0.00 0.00 0.00 83 1009.4
20260506084500 59 297 0.0 0.9 0.00 0.00 0.00 82 1009.5
20260506083000 60 319 0.9 1.7 0.00 0.00 0.00 80 1009.5
20260506081500 61 25 0.0 0.9 0.00 0.00 0.00 79 1009.6
20260506073000 66 5 1.7 2.6 0.00 0.00 0.00 70 1009.4
20260506071500 66 265 0.9 1.7 0.00 0.00 0.00 69 1009.6
20260506061500 67 218 1.7 2.6 0.00 0.00 0.00 68 1009.6
20260506044500 68 276 0.9 2.6 0.00 0.00 0.00 62 1010.1
20260506043000 68 273 0.0 1.7 0.00 0.00 0.00 63 1010.1
20260506041500 68 230 0.0 0.9 0.00 0.00 0.00 63 1010.1
20260506040000 68 216 0.9 1.7 0.00 0.00 0.06 61 1009.9
20260506034500 68 254 0.9 1.7 0.00 0.00 0.06 61 1010.0
20260506033000 68 275 0.0 1.7 0.00 0.00 0.06 61 1010.0
20260506031500 68 208 0.9 1.7 0.00 0.00 0.06 61 1009.8
20260506030000 68 250 0.9 2.6 0.00 0.00 0.06 62 1009.7
20260506024500 68 233 0.9 1.7 0.00 0.00 0.06 61 1009.6
20260506023000 68 292 0.0 0.9 0.00 0.00 0.06 61 1009.8
20260506021500 67 207 0.9 2.6 0.00 0.00 0.06 61 1009.7
20260506020000 67 222 0.0 0.9 0.00 0.00 0.06 62 1009.6
20260506014500 67 252 0.0 0.9 0.00 0.00 0.06 63 1009.6
20260506013000 69 298 0.0 1.7 0.00 0.00 0.06 60 1009.3
20260506011500 70 331 0.9 2.6 0.00 0.00 0.06 57 1009.0
20260506010000 72 116 0.0 1.7 0.00 0.00 0.06 52 1008.8
20260506004500 75 207 0.9 1.7 0.00 0.00 0.06 45 1008.5
20260506003000 75 217 0.9 1.7 0.00 0.00 0.06 42 1008.3
20260506001500 76 132 0.0 1.7 0.00 0.00 0.06 41 1008.2
20260506000000 77 153 0.9 3.5 0.00 0.00 0.06 38 1008.0
20260505234500 77 192 2.6 5.2 0.00 0.00 0.06 37 1007.8
20260505233000 78 190 2.6 4.3 0.00 0.00 0.06 35 1007.7
20260505231500 79 173 1.7 4.3 0.00 0.00 0.06 34 1007.5
20260505230000 80 131 2.6 5.2 0.00 0.00 0.06 34 1007.2
20260505224500 80 137 3.5 7.0 0.00 0.00 0.06 33 1006.9
20260505223000 80 141 2.6 5.2 0.00 0.00 0.06 33 1007.0
20260505221500 81 174 4.3 7.8 0.00 0.00 0.06 34 1006.9
20260505220000 81 133 3.5 6.1 0.00 0.00 0.06 34 1007.0
20260505214500 81 193 2.6 4.3 0.00 0.00 0.06 33 1006.9
20260505213000 81 272 1.7 3.5 0.00 0.00 0.06 35 1006.5
20260505211500 80 183 1.7 4.3 0.00 0.00 0.06 37 1006.5
20260505210000 78 183 3.5 7.8 0.00 0.00 0.06 37 1006.4
20260505204500 77 238 1.7 3.5 0.00 0.00 0.06 46 1006.7
20260505203000 78 184 1.7 2.6 0.00 0.00 0.06 47 1007.0
20260505201500 78 206 2.6 5.2 0.00 0.00 0.06 47 1007.0
20260505200000 79 243 1.7 3.5 0.00 0.00 0.06 44 1007.1
20260505194500 78 213 1.7 3.5 0.00 0.00 0.06 48 1007.2
20260505193000 79 174 2.6 4.3 0.00 0.00 0.06 49 1007.5
20260505191500 81 183 1.7 3.5 0.00 0.00 0.06 45 1007.4
20260505190000 80 253 0.9 1.7 0.00 0.00 0.06 44 1007.6
20260505184500 79 270 2.6 4.3 0.00 0.00 0.06 46 1007.9
20260505183000 79 236 1.7 2.6 0.00 0.00 0.06 47 1008.1
20260505181500 79 178 1.7 2.6 0.00 0.00 0.06 49 1008.3
20260505180000 80 224 1.7 3.5 0.00 0.00 0.06 47 1008.4
20260505174500 78 164 1.7 4.3 0.00 0.00 0.06 48 1008.4
20260505173000 78 231 1.7 3.5 0.00 0.00 0.06 48 1008.6
20260505171500 78 199 2.6 7.0 0.00 0.00 0.06 50 1008.7
20260505170000 79 216 2.6 3.5 0.00 0.00 0.06 49 1008.8
20260505164500 80 171 2.6 4.3 0.00 0.00 0.06 48 1009.0
20260505163000 80 160 1.7 3.5 0.00 0.00 0.06 49 1009.3
20260505161500 79 228 1.7 4.3 0.00 0.00 0.06 47 1009.4
20260505153000 76 176 0.9 2.6 0.00 0.00 0.06 51 1010.0
20260505151500 75 167 1.7 5.2 0.00 0.00 0.06 51 1010.1